Lake Seminole Weather Center

Moon Phase Calendar



Lake Seminole Water Level
Online Cameras

 


      

Current Conditions in Chattahoochee
12/3/2021 8:23:52 AM

49°F
Feels Like 48
Clear
Humidity
82%
Pressure
30.09"
Wind
3.8 mph (WNW)
Dew Point
44°F
UV Index
0/10 (Low)
Visibility
6 mi

Hourly Forecast

Date & Time Fri, Dec 3
8:00 AM
Fri, Dec 3
9:00 AM
Fri, Dec 3
10:00 AM
Fri, Dec 3
11:00 AM
Fri, Dec 3
12:00 PM
Fri, Dec 3
1:00 PM
Fri, Dec 3
2:00 PM
Fri, Dec 3
3:00 PM
Fri, Dec 3
4:00 PM
Fri, Dec 3
5:00 PM
Fri, Dec 3
6:00 PM
Fri, Dec 3
7:00 PM
Fri, Dec 3
8:00 PM
Fri, Dec 3
9:00 PM
Fri, Dec 3
10:00 PM
Fri, Dec 3
11:00 PM
Sat, Dec 4
12:00 AM
Sat, Dec 4
1:00 AM
Sat, Dec 4
2:00 AM
Sat, Dec 4
3:00 AM
Sat, Dec 4
4:00 AM
Sat, Dec 4
5:00 AM
Sat, Dec 4
6:00 AM
Sat, Dec 4
7:00 AM
Sat, Dec 4
8:00 AM
Sat, Dec 4
9:00 AM
Sat, Dec 4
10:00 AM
Sat, Dec 4
11:00 AM
Sat, Dec 4
12:00 PM
Sat, Dec 4
1:00 PM
Sat, Dec 4
2:00 PM
Sat, Dec 4
3:00 PM
Sat, Dec 4
4:00 PM
Sat, Dec 4
5:00 PM
Sat, Dec 4
6:00 PM
Sat, Dec 4
7:00 PM
Sat, Dec 4
8:00 PM
Sat, Dec 4
9:00 PM
Sat, Dec 4
10:00 PM
Sat, Dec 4
11:00 PM
Sun, Dec 5
12:00 AM
Sun, Dec 5
1:00 AM
Sun, Dec 5
2:00 AM
Sun, Dec 5
3:00 AM
Sun, Dec 5
4:00 AM
Sun, Dec 5
5:00 AM
Sun, Dec 5
6:00 AM
Sun, Dec 5
7:00 AM
Condition
Clear

Clouds

Clouds

Clouds

Clouds

Clouds

Clouds

Clouds

Clouds

Clouds

Clouds

Clouds

Clouds

Clouds

Clouds

Clouds

Clouds

Clouds

Clouds

Clouds

Clouds

Clouds

Clouds

Clouds

Clouds

Clouds

Clouds

Clouds

Clouds

Clouds

Clouds

Clouds

Clouds

Clouds

Clouds

Clouds

Clear

Clear

Clear

Clear

Clear

Clear

Clear

Clear

Clear

Clear

Clear

Clear
Temperature 49°F51°F55°F60°F66°F72°F73°F73°F73°F69°F64°F63°F62°F61°F60°F59°F58°F58°F57°F57°F57°F57°F56°F56°F57°F62°F66°F69°F72°F74°F75°F75°F75°F71°F66°F64°F63°F60°F59°F58°F57°F57°F56°F56°F56°F56°F55°F55°F
Feels Like 48°F50°F54°F59°F65°F72°F72°F72°F72°F68°F64°F62°F61°F60°F59°F59°F58°F58°F57°F57°F57°F57°F56°F56°F57°F62°F65°F69°F72°F74°F74°F75°F74°F70°F65°F63°F62°F59°F58°F58°F57°F57°F56°F56°F56°F55°F55°F55°F
Cloudiness 10%11%23%38%55%71%100%100%100%100%100%100%100%100%100%100%99%99%100%100%100%100%100%94%35%51%68%76%81%84%100%100%68%61%49%41%0%0%0%0%0%0%0%0%0%0%0%0%
Visibility 6 mi6 mi6 mi6 mi6 mi6 mi6 mi6 mi6 mi6 mi6 mi6 mi6 mi6 mi6 mi6 mi6 mi6 mi6 mi6 mi6 mi6 mi6 mi6 mi6 mi6 mi6 mi6 mi6 mi6 mi6 mi6 mi6 mi6 mi6 mi6 mi6 mi6 mi6 mi6 mi6 mi6 mi6 mi6 mi6 mi6 mi6 mi6 mi
Precipitation 0%0%0%0%0%0%0%0%0%0%0%0%0%0%0%0%0%0%0%0%0%0%0%0%0%0%0%0%0%0%0%0%0%0%0%0%0%0%0%0%0%0%0%0%0%0%0%0%
Humidity 82%82%78%72%64%54%52%51%51%63%70%73%76%79%81%84%89%91%93%94%95%95%95%95%95%84%74%65%58%52%48%47%47%57%64%66%68%75%80%85%89%91%93%93%93%93%94%94%
Dew Point 44°F46°F48°F51°F54°F55°F54°F54°F54°F55°F54°F54°F54°F54°F54°F54°F55°F55°F55°F55°F55°F56°F55°F55°F55°F57°F57°F57°F57°F56°F54°F54°F53°F55°F53°F53°F52°F52°F53°F54°F54°F54°F54°F54°F54°F54°F54°F53°F
Pressure 30.09"30.09"30.12"30.12"30.15"30.09"30.06"30.06"30.06"30.06"30.09"30.09"30.12"30.12"30.12"30.12"30.12"30.09"30.12"30.12"30.09"30.09"30.12"30.12"30.15"30.15"30.18"30.15"30.15"30.12"30.09"30.09"30.09"30.09"30.09"30.12"30.12"30.15"30.15"30.15"30.12"30.12"30.12"30.12"30.12"30.12"30.15"30.15"
Wind Speed 3.8 mph3.9 mph4.2 mph3.8 mph4.4 mph4.9 mph4.6 mph4.9 mph4.6 mph3.5 mph2.2 mph1.9 mph2.2 mph3.7 mph4.8 mph4.4 mph4.4 mph4.5 mph4.9 mph4.6 mph3.9 mph3.6 mph3.1 mph2.8 mph2.5 mph2.4 mph2.9 mph3.3 mph3.5 mph4.1 mph4.8 mph5 mph5.2 mph3.6 mph2.7 mph1.6 mph3.7 mph5.3 mph4.8 mph5.1 mph5 mph4.8 mph4.4 mph3.7 mph3.2 mph3 mph3.1 mph3.4 mph
Wind
Direction
293°
WNW
307°
NW
304°
NW
310°
NW
282°
WNW
281°
W
275°
W
274°
W
272°
W
276°
W
285°
WNW
272°
W
263°
W
216°
SW
216°
SW
208°
SSW
202°
SSW
220°
SW
238°
WSW
245°
WSW
241°
WSW
248°
WSW
262°
W
264°
W
268°
W
269°
W
267°
W
267°
W
261°
W
253°
WSW
261°
W
262°
W
270°
W
275°
W
286°
WNW
316°
NW
187°
S
200°
SSW
218°
SW
219°
SW
210°
SSW
209°
SSW
212°
SSW
219°
SW
216°
SW
210°
SSW
189°
S
169°
S

Daily Forecast

Date High Low Precip. Humidity
Today
Dec 3

Clouds
73 °F
49 °F
0%
64%
Saturday
Dec 4

Clouds
75 °F
56 °F
0%
58%
Sunday
Dec 5

Clear
75 °F
55 °F
0%
44%
Monday
Dec 6

Clouds
76 °F
57 °F
0%
54%
Tuesday
Dec 7

Clouds
77 °F
62 °F
6%
61%
Wednesday
Dec 8

Rain
81 °F
64 °F
56%
51%
Thursday
Dec 9

Rain
83 °F
68 °F
100%
56%
Friday
Dec 10

Rain
84 °F
70 °F
100%
59%
Saturday
Dec 11

Clouds
82 °F
67 °F
0%
56%
Sunday
Dec 12

Rain
81 °F
64 °F
84%
62%
Monday
Dec 13

Clear
57 °F
44 °F
0%
36%
Tuesday
Dec 14

Clear
63 °F
39 °F
0%
31%
Wednesday
Dec 15

Clear
68 °F
43 °F
0%
40%
Thursday
Dec 16

Clear
71 °F
50 °F
0%
59%
Friday
Dec 17

Clear
74 °F
56 °F
0%
46%
Saturday
Dec 18

Clear
73 °F
54 °F
0%
52%

Temperature 8-14 Day Outlook



Precipitation 8-14 Day Outlook




Quick Links
Lake Seminole News
Lake Seminole Photos
Lake Seminole Videos




About Us
Contact Us
Site Map
Search Site
Advertise With Us
   
Seminole.USLakes.info
THE LAKE SEMINOLE WEBSITE

Copyright 2021, Lakes Online
Privacy    |    Legal